User: anonymous   Login
Location: Unspecified
(48.5670°N, 0.0000°E)
Time: 11:06:43
(UTC+00:00)
Language:

Courier 1B - Orbit

View from above orbital plane
View from above orbital plane
View from above satellite
View from above satellite

Ground track
Ground track

The orbit data is extracted from the following two-line orbital elements,

1    58U 60013A   19203.79096640 +.00000101 +00000-0 +19370-4 0  9995
2    58 028.3296 332.1632 0164976 211.7171 147.3343 13.46318017894020
Epoch (UTC): 22 July 2019 18:58:59
Eccentricity: 0.0164976
inclination: 28.3296°
perigee height: 963 km
apogee height: 1209 km
right ascension of ascending node: 332.1632°
argument of perigee: 211.7171°
revolutions per day: 13.46318017
mean anomaly at epoch: 147.3343°
orbit number at epoch: 89402

The dashed part of the orbit path shows where the satellite is in the earth's shadow,  

DLR